Wind from 270 at 8 knots gusting 13

Air temperature 17.2° C
Dewpoint 10.1° C

Last reported at 2014-Apr-19 16:41 UTC.
Time now 2014-Apr-19 17:10 UTC

Location: N 37°07' W 003°36'.
View on Google Maps.

See reports from other nearby stations

Tides Stations Pressure Air Temp Water Temp Dewpoint Dewpoint depression Visibility Wind Speed Wind Dir Waves Ship positions

  
sailing weather and tide predictions

DW2802 Ogijares ES weather

date/time (UTC)wind fromknots sea level pressurealtimeterstation pressurevisibilityair tempwater tempwave heightnotes
2014-Apr-19 16:41 270 8 gusting 13 17.2
2014-Apr-19 16:26 267 7 gusting 13 16.7
2014-Apr-19 16:11 310 6 gusting 12 16.1
2014-Apr-19 15:57 275 6 gusting 12 16.7
2014-Apr-19 15:41 268 4 gusting 9 16.7
2014-Apr-19 15:26 279 16.7
2014-Apr-19 15:11 289 16.7
2014-Apr-19 14:56 306 2 gusting 8 17.2
2014-Apr-19 14:41 275 5 gusting 8 17.2
2014-Apr-19 14:26 284 5 gusting 8 17.2
2014-Apr-19 14:11 323 3 gusting 6 17.2
2014-Apr-19 13:56 300 16.7
2014-Apr-19 13:41 300 16.7
2014-Apr-19 13:26 306 16.1
2014-Apr-19 13:11 348 16.1
2014-Apr-19 12:56 311 0 gusting 3 15.6
2014-Apr-19 12:41 327 3 gusting 6 15.6
2014-Apr-19 12:26 300 15.6
2014-Apr-19 12:12 290 4 gusting 9 15.6
2014-Apr-19 11:56 332 2 gusting 7 16.1
2014-Apr-19 11:41 292 1 gusting 6 16.1
2014-Apr-19 11:26 292 15.6
2014-Apr-19 11:11 316 1 gusting 5 15.6
2014-Apr-19 10:56 307 4 gusting 8 15.0
2014-Apr-19 10:42 302 3 gusting 6 15.0
2014-Apr-19 10:26 345 14.4
2014-Apr-19 10:11 329 0 gusting 6 14.4
2014-Apr-19 09:56 279 14.4
2014-Apr-19 09:41 269 13.9
2014-Apr-19 09:26 277 13.9
2014-Apr-19 09:11 278 13.9
2014-Apr-19 08:56 278 13.9
2014-Apr-19 08:41 278 13.9
2014-Apr-19 08:26 261 13.9
2014-Apr-19 08:10 258 13.3
2014-Apr-19 07:55 258 0 gusting 5 13.3
2014-Apr-19 07:40 252 13.3
2014-Apr-19 07:25 256 13.3
2014-Apr-19 07:10 256 12.8
2014-Apr-19 06:55 258 12.8
2014-Apr-19 06:40 281 13.3
2014-Apr-19 06:25 281 13.3
2014-Apr-19 06:10 281 12.8
2014-Apr-19 05:55 281 12.8
2014-Apr-19 05:40 281 13.3
2014-Apr-19 05:25 271 0 gusting 6 13.3
2014-Apr-19 05:10 270 1 gusting 3 13.3
2014-Apr-19 04:55 266 13.3
2014-Apr-19 04:40 265 13.9
2014-Apr-19 04:25 242 13.3
2014-Apr-19 04:10 165 12.8
2014-Apr-19 03:55 165 12.8
2014-Apr-19 03:40 165 13.3
2014-Apr-19 03:25 165 13.3
2014-Apr-19 03:10 165 13.3
2014-Apr-19 02:55 165 13.3
2014-Apr-19 02:40 165 13.3
2014-Apr-19 02:25 165 13.3
2014-Apr-19 02:10 165 13.9
2014-Apr-19 01:55 165 13.9
2014-Apr-19 01:40 165 13.9
2014-Apr-19 01:25 165 13.9
2014-Apr-19 01:10 165 14.4
2014-Apr-19 00:55 165 14.4
2014-Apr-19 00:40 165 14.4
2014-Apr-19 00:25 165 15.0
2014-Apr-19 00:10 165 15.0
2014-Apr-18 23:55 165 15.6
2014-Apr-18 23:40 165 15.6
2014-Apr-18 23:25 173 15.6
2014-Apr-18 23:10 198 16.1
2014-Apr-18 22:55 198 16.1
2014-Apr-18 22:39 198 16.1
2014-Apr-18 22:24 199 16.1
2014-Apr-18 22:09 199 16.7
2014-Apr-18 21:54 187 16.7
2014-Apr-18 21:39 184 17.2
2014-Apr-18 21:24 184 17.8
2014-Apr-18 21:09 207 0 gusting 5 17.8
2014-Apr-18 20:54 231 3 gusting 6 18.3
2014-Apr-18 20:39 228 2 gusting 6 18.3
2014-Apr-18 20:24 227 1 gusting 5 18.9
2014-Apr-18 20:09 242 19.4
2014-Apr-18 19:54 242 20.0
2014-Apr-18 19:39 209 20.0
2014-Apr-18 19:24 187 0 gusting 4 20.6
2014-Apr-18 19:09 211 21.1
2014-Apr-18 18:54 248 2 gusting 7 21.7
2014-Apr-18 18:39 273 4 gusting 9 21.7
2014-Apr-18 18:09 263 6 gusting 11 22.8
2014-Apr-18 17:54 272 4 gusting 10 23.3
2014-Apr-18 17:39 282 6 gusting 12 23.9
2014-Apr-18 17:24 279 6 gusting 11 23.9
2014-Apr-18 17:09 286 6 gusting 12 24.4
2014-Apr-18 16:54 300 6 gusting 12 24.4
2014-Apr-18 16:39 302 3 gusting 13 25.0
2014-Apr-18 16:09 260 6 gusting 13 25.6
2014-Apr-18 15:54 269 8 gusting 13 25.6
2014-Apr-18 15:39 282 5 gusting 13 25.6
2014-Apr-18 15:24 324 6 gusting 15 25.6
2014-Apr-18 15:09 306 6 gusting 13 26.1
2014-Apr-18 14:54 294 6 gusting 12 25.6
2014-Apr-18 14:39 286 3 gusting 11 25.6
2014-Apr-18 14:24 296 6 gusting 12 26.7
2014-Apr-18 14:09 296 3 gusting 7 26.1
2014-Apr-18 13:54 243 3 gusting 7 26.1
2014-Apr-18 13:39 326 3 gusting 10 25.6
2014-Apr-18 13:24 303 5 gusting 9 25.6
2014-Apr-18 13:09 262 4 gusting 9 25.6
2014-Apr-18 12:54 261 2 gusting 6 25.0
2014-Apr-18 12:39 329 1 gusting 9 25.0
2014-Apr-18 12:24 344 1 gusting 8 24.4
2014-Apr-18 12:09 295 3 gusting 8 24.4
2014-Apr-18 11:54 005 4 gusting 6 23.9
2014-Apr-18 11:38 270 23.3
2014-Apr-18 11:23 267 23.3
2014-Apr-18 11:08 346 1 gusting 6 22.8
2014-Apr-18 10:53 009 4 gusting 7 22.2
2014-Apr-18 10:38 325 22.2
2014-Apr-18 10:23 005 21.7
2014-Apr-18 10:08 355 21.1
2014-Apr-18 09:53 338 20.0
2014-Apr-18 09:38 321 20.0
2014-Apr-18 09:23 345 19.4
2014-Apr-18 09:08 288 20.0
2014-Apr-18 08:53 285 19.4
2014-Apr-18 08:38 284 17.8
2014-Apr-18 08:23 284 17.2
2014-Apr-18 08:08 261 16.7
2014-Apr-18 07:52 151 16.7
2014-Apr-18 07:37 144 16.7
2014-Apr-18 07:22 144 16.7
2014-Apr-18 07:07 144 16.1
2014-Apr-18 06:52 144 15.0
2014-Apr-18 06:37 144 13.9
2014-Apr-18 06:23 144 13.3
2014-Apr-18 06:07 144 12.8
2014-Apr-18 05:52 144 13.3
2014-Apr-18 05:37 144 12.8
2014-Apr-18 05:22 144 13.3
2014-Apr-18 05:07 144 13.3
2014-Apr-18 04:52 144 13.3
2014-Apr-18 04:37 145 13.3
2014-Apr-18 04:22 145 13.3
2014-Apr-18 04:07 145 13.9
2014-Apr-18 03:52 145 13.9
2014-Apr-18 03:37 145 13.9
2014-Apr-18 03:22 145 13.9
2014-Apr-18 03:07 145 13.9
2014-Apr-18 02:52 145 13.9
2014-Apr-18 02:37 145 13.9
2014-Apr-18 02:22 145 14.4
2014-Apr-18 02:07 145 14.4
2014-Apr-18 01:52 145 14.4
2014-Apr-18 01:37 145 15.0
2014-Apr-18 01:22 145 13.9
2014-Apr-18 01:07 141 14.4
2014-Apr-18 00:52 141 15.0
2014-Apr-18 00:36 141 15.6
2014-Apr-18 00:21 141 16.1
2014-Apr-18 00:06 141 16.1
2014-Apr-17 23:51 141 16.1
2014-Apr-17 23:36 141 16.1
2014-Apr-17 23:21 141 16.7
2014-Apr-17 23:06 141 16.7
2014-Apr-17 22:51 141 17.2
2014-Apr-17 22:36 141 17.2
2014-Apr-17 22:21 141 17.2
2014-Apr-17 22:06 141 17.2
2014-Apr-17 21:51 141 17.8
2014-Apr-17 21:36 141 17.8
2014-Apr-17 21:21 141 18.3
2014-Apr-17 21:06 141 19.4
2014-Apr-17 20:51 215 19.4
2014-Apr-17 20:36 215 19.4
2014-Apr-17 20:21 215 0 gusting 6 20.6
2014-Apr-17 20:06 115 0 gusting 6 21.1
2014-Apr-17 19:51 156 4 gusting 9 21.1
2014-Apr-17 19:36 148 6 gusting 13 21.1
2014-Apr-17 19:21 163 6 gusting 10 21.7
2014-Apr-17 19:06 150 7 gusting 12 21.7
2014-Apr-17 18:51 155 6 gusting 13 22.2
2014-Apr-17 18:36 146 5 gusting 11 22.8
2014-Apr-17 18:21 145 6 gusting 13 23.3
2014-Apr-17 18:06 155 7 gusting 12 23.9
2014-Apr-17 17:51 163 6 gusting 10 24.4
2014-Apr-17 17:36 142 6 gusting 12 25.0
2014-Apr-17 17:21 143 5 gusting 13 25.0
2014-Apr-17 17:06 162 4 gusting 10 25.6